| time (UTC) | temp F | wind direction | speed MPH | gust MPH | rain 1hr in | rain 24hr in | rain mn in | humidity % | barometer mb |
| 20260901082517 | 85 | 113 | 2.0 | 8.0 | 0.00 | 0.00 | 0.00 | 67 | 1015.5 |
| 20260901081517 | 85 | 180 | 3.0 | 5.0 | 0.00 | 0.00 | 0.00 | 71 | 1015.3 |
| 20260901080537 | 84 | 113 | 3.0 | 6.0 | 0.00 | 0.00 | 0.00 | 72 | 1015.3 |
| 20260901075517 | 83 | 45 | 2.0 | 4.0 | 0.00 | 0.00 | 0.00 | 73 | 1015.4 |
| 20260901074517 | 83 | 113 | 4.0 | 8.0 | 0.00 | 0.00 | 0.00 | 73 | 1015.5 |
| 20260901073517 | 83 | 113 | 3.0 | 7.0 | 0.00 | 0.00 | 0.00 | 75 | 1015.4 |
| 20260901072515 | 82 | 113 | 3.0 | 5.0 | 0.00 | 0.00 | 0.00 | 75 | 1015.4 |
| 20260901071517 | 82 | 90 | 3.0 | 7.0 | 0.00 | 0.00 | 0.00 | 75 | 1015.4 |
| 20260901070517 | 82 | 90 | 1.0 | 5.0 | 0.00 | 0.00 | 0.00 | 75 | 1015.3 |
| 20260901065557 | 81 | 113 | 3.0 | 6.0 | 0.00 | 0.00 | 0.00 | 76 | 1015.3 |
| 20260901064537 | 81 | 90 | 3.0 | 7.0 | 0.00 | 0.00 | 0.00 | 76 | 1015.4 |
| 20260901063517 | 80 | 90 | 1.0 | 4.0 | 0.00 | 0.00 | 0.00 | 76 | 1015.2 |
| 20260901062537 | 80 | 0.0 | 2.0 | 0.00 | 0.00 | 0.00 | 77 | 1015.3 | |
| 20260901061517 | 79 | 0.0 | 2.0 | 0.00 | 0.00 | 0.00 | 79 | 1015.2 | |
| 20260901060517 | 78 | 90 | 2.0 | 4.0 | 0.00 | 0.00 | 0.00 | 78 | 1015.2 |
| 20260901055517 | 77 | 0.0 | 2.0 | 0.00 | 0.00 | 0.00 | 81 | 1015.2 | |
| 20260901054557 | 76 | 23 | 1.0 | 4.0 | 0.00 | 0.00 | 0.00 | 82 | 1015.2 |
| 20260901053517 | 75 | 45 | 2.0 | 5.0 | 0.00 | 0.00 | 0.00 | 82 | 1015.2 |
| 20260901052517 | 74 | 45 | 3.0 | 7.0 | 0.00 | 0.00 | 0.00 | 82 | 1015.3 |
| 20260901051517 | 73 | 0.0 | 1.0 | 0.00 | 0.00 | 0.00 | 85 | 1015.2 | |
| 20260901050557 | 73 | 0.0 | 1.0 | 0.00 | 0.00 | 0.00 | 86 | 1015.1 | |
| 20260901045517 | 72 | 0.0 | 0.0 | 0.00 | 0.00 | 0.00 | 87 | 1015.0 | |
| 20260901044517 | 72 | 0.0 | 0.0 | 0.00 | 0.00 | 0.00 | 87 | 1015.1 | |
| 20260901043537 | 72 | 0.0 | 1.0 | 0.00 | 0.00 | 0.00 | 86 | 1015.0 | |
| 20260901042517 | 72 | 0.0 | 1.0 | 0.00 | 0.00 | 0.00 | 85 | 1014.9 | |
| 20260901041517 | 72 | 0.0 | 1.0 | 0.00 | 0.00 | 0.00 | 85 | 1014.7 | |
| 20260901040517 | 73 | 0.0 | 1.0 | 0.00 | 0.00 | 0.00 | 85 | 1014.7 | |
| 20260901035517 | 73 | 0.0 | 0.0 | 0.00 | 0.00 | 0.00 | 84 | 1014.7 | |
| 20260901034517 | 73 | 45 | 1.0 | 2.0 | 0.00 | 0.00 | 0.00 | 84 | 1014.8 |
| 20260901033517 | 74 | 23 | 2.0 | 3.0 | 0.00 | 0.00 | 0.00 | 84 | 1014.6 |
| 20260901032516 | 74 | 45 | 1.0 | 2.0 | 0.00 | 0.00 | 0.00 | 85 | 1014.7 |
| 20260901031517 | 73 | 23 | 2.0 | 3.0 | 0.00 | 0.00 | 0.00 | 86 | 1014.7 |
| 20260901030517 | 73 | 338 | 1.0 | 2.0 | 0.00 | 0.00 | 0.00 | 87 | 1014.9 |
| 20260901025516 | 73 | 23 | 2.0 | 2.0 | 0.00 | 0.00 | 0.00 | 86 | 1014.9 |
| 20260901024516 | 72 | 45 | 1.0 | 2.0 | 0.00 | 0.00 | 0.00 | 87 | 1014.9 |
| 20260901023517 | 73 | 0.0 | 0.0 | 0.00 | 0.00 | 0.00 | 88 | 1015.0 | |
| 20260901022516 | 73 | 0 | 1.0 | 1.0 | 0.00 | 0.00 | 0.00 | 89 | 1015.0 |
| 20260901021517 | 73 | 0.0 | 0.0 | 0.00 | 0.00 | 0.00 | 89 | 1015.0 | |
| 20260901020537 | 73 | 0.0 | 0.0 | 0.00 | 0.00 | 0.00 | 87 | 1014.8 | |
| 20260901015517 | 73 | 0.0 | 1.0 | 0.00 | 0.00 | 0.00 | 86 | 1014.8 | |
| 20260901014516 | 73 | 0.0 | 0.0 | 0.00 | 0.00 | 0.00 | 86 | 1014.8 | |
| 20260901013517 | 73 | 23 | 1.0 | 2.0 | 0.00 | 0.00 | 0.00 | 86 | 1014.7 |
| 20260901012516 | 73 | 0.0 | 2.0 | 0.00 | 0.00 | 0.00 | 86 | 1014.7 | |
| 20260901011536 | 73 | 0.0 | 3.0 | 0.00 | 0.00 | 0.00 | 86 | 1014.7 | |
| 20260901010517 | 73 | 0.0 | 0.0 | 0.00 | 0.00 | 0.00 | 87 | 1014.7 | |
| 20260901005516 | 74 | 0.0 | 0.0 | 0.00 | 0.00 | 0.00 | 87 | 1014.7 | |
| 20260901004517 | 74 | 0.0 | 0.0 | 0.00 | 0.00 | 0.00 | 86 | 1014.6 | |
| 20260901003516 | 74 | 0.0 | 0.0 | 0.00 | 0.00 | 0.00 | 86 | 1014.7 | |
| 20260901002517 | 74 | 0.0 | 0.0 | 0.00 | 0.00 | 0.00 | 86 | 1014.7 | |
| 20260901001516 | 74 | 0.0 | 0.0 | 0.00 | 0.00 | 0.00 | 85 | 1014.8 | |
| 20260901000536 | 74 | 0.0 | 0.0 | 0.00 | 0.00 | 0.00 | 85 | 1014.7 | |
| 20260831235516 | 74 | 0.0 | 0.0 | 0.00 | 0.00 | 0.00 | 85 | 1014.7 | |
| 20260831234516 | 75 | 0.0 | 0.0 | 0.00 | 0.00 | 0.00 | 84 | 1014.7 | |
| 20260831233516 | 75 | 0.0 | 0.0 | 0.00 | 0.00 | 0.00 | 83 | 1014.6 | |
| 20260831232516 | 75 | 0.0 | 0.0 | 0.00 | 0.00 | 0.00 | 84 | 1014.6 | |
| 20260831231516 | 75 | 0.0 | 0.0 | 0.00 | 0.00 | 0.00 | 85 | 1014.6 | |
| 20260831230516 | 75 | 0.0 | 0.0 | 0.00 | 0.00 | 0.00 | 84 | 1014.6 | |
| 20260831225516 | 75 | 0.0 | 0.0 | 0.00 | 0.00 | 0.00 | 83 | 1014.5 | |
| 20260831224516 | 75 | 0.0 | 0.0 | 0.00 | 0.00 | 0.00 | 83 | 1014.6 | |
| 20260831223516 | 75 | 0.0 | 0.0 | 0.00 | 0.00 | 0.00 | 83 | 1014.6 | |
| 20260831222516 | 76 | 0.0 | 0.0 | 0.00 | 0.00 | 0.00 | 83 | 1014.6 | |
| 20260831221516 | 76 | 0.0 | 0.0 | 0.00 | 0.00 | 0.00 | 83 | 1014.5 | |
| 20260831220516 | 76 | 0.0 | 0.0 | 0.00 | 0.00 | 0.00 | 83 | 1014.6 | |
| 20260831215517 | 76 | 0.0 | 0.0 | 0.00 | 0.00 | 0.00 | 84 | 1014.5 | |
| 20260831214517 | 76 | 0.0 | 0.0 | 0.00 | 0.00 | 0.00 | 85 | 1014.6 | |
| 20260831213536 | 76 | 0.0 | 0.0 | 0.00 | 0.00 | 0.00 | 85 | 1014.6 | |
| 20260831212517 | 76 | 0.0 | 0.0 | 0.00 | 0.00 | 0.00 | 85 | 1014.4 | |
| 20260831211517 | 77 | 0.0 | 0.0 | 0.00 | 0.00 | 0.00 | 86 | 1014.4 | |
| 20260831210536 | 77 | 0.0 | 0.0 | 0.00 | 0.00 | 0.00 | 85 | 1014.3 | |
| 20260831205516 | 77 | 0.0 | 0.0 | 0.00 | 0.00 | 0.00 | 86 | 1014.3 | |
| 20260831204516 | 77 | 0.0 | 0.0 | 0.00 | 0.00 | 0.00 | 85 | 1014.2 | |
| 20260831203517 | 77 | 0.0 | 0.0 | 0.00 | 0.00 | 0.00 | 85 | 1014.2 | |
| 20260831202517 | 77 | 0.0 | 0.0 | 0.00 | 0.00 | 0.00 | 85 | 1014.1 | |
| 20260831201516 | 78 | 0.0 | 0.0 | 0.00 | 0.00 | 0.00 | 84 | 1014.1 | |
| 20260831200516 | 78 | 0.0 | 0.0 | 0.00 | 0.00 | 0.00 | 84 | 1014.1 | |
| 20260831195516 | 78 | 0.0 | 0.0 | 0.00 | 0.00 | 0.00 | 84 | 1014.1 | |
| 20260831194518 | 78 | 0.0 | 0.0 | 0.00 | 0.00 | 0.00 | 83 | 1014.0 | |
| 20260831193516 | 79 | 0.0 | 0.0 | 0.00 | 0.00 | 0.00 | 82 | 1013.9 | |
| 20260831192516 | 79 | 0.0 | 1.0 | 0.00 | 0.00 | 0.00 | 82 | 1013.8 | |
| 20260831191516 | 79 | 0.0 | 0.0 | 0.00 | 0.00 | 0.00 | 81 | 1013.9 | |
| 20260831190516 | 80 | 0.0 | 0.0 | 0.00 | 0.00 | 0.00 | 80 | 1013.6 | |
| 20260831185516 | 80 | 0.0 | 1.0 | 0.00 | 0.00 | 0.00 | 80 | 1013.6 | |
| 20260831184516 | 80 | 0.0 | 1.0 | 0.00 | 0.00 | 0.00 | 79 | 1013.6 | |
| 20260831183516 | 80 | 0.0 | 1.0 | 0.00 | 0.00 | 0.00 | 79 | 1013.6 | |
| 20260831182536 | 80 | 0.0 | 3.0 | 0.00 | 0.00 | 0.00 | 79 | 1013.6 | |
| 20260831181516 | 81 | 225 | 1.0 | 3.0 | 0.00 | 0.00 | 0.00 | 78 | 1013.5 |
| 20260831180557 | 81 | 203 | 2.0 | 5.0 | 0.00 | 0.00 | 0.00 | 77 | 1013.4 |
| 20260831175538 | 81 | 203 | 2.0 | 4.0 | 0.00 | 0.00 | 0.00 | 77 | 1013.1 |
| 20260831174516 | 82 | 203 | 2.0 | 6.0 | 0.00 | 0.00 | 0.00 | 76 | 1013.1 |
| 20260831173516 | 82 | 203 | 2.0 | 7.0 | 0.00 | 0.00 | 0.00 | 74 | 1013.3 |
| 20260831172516 | 82 | 225 | 2.0 | 5.0 | 0.00 | 0.00 | 0.00 | 74 | 1013.3 |
| 20260831171516 | 82 | 225 | 3.0 | 7.0 | 0.00 | 0.00 | 0.00 | 75 | 1013.5 |
| 20260831170516 | 83 | 203 | 3.0 | 5.0 | 0.00 | 0.00 | 0.00 | 75 | 1013.5 |
| 20260831165516 | 83 | 203 | 3.0 | 6.0 | 0.00 | 0.00 | 0.00 | 75 | 1013.5 |
| 20260831164516 | 83 | 225 | 4.0 | 8.0 | 0.00 | 0.00 | 0.00 | 74 | 1013.6 |
| 20260831163516 | 84 | 203 | 4.0 | 7.0 | 0.00 | 0.00 | 0.00 | 73 | 1013.6 |
| 20260831162536 | 85 | 203 | 5.0 | 9.0 | 0.00 | 0.00 | 0.00 | 72 | 1013.5 |
| 20260831161516 | 86 | 203 | 5.0 | 11.0 | 0.00 | 0.00 | 0.00 | 72 | 1013.3 |
| 20260831160516 | 86 | 203 | 5.0 | 11.0 | 0.00 | 0.00 | 0.00 | 72 | 1013.2 |
| 20260831155516 | 86 | 203 | 4.0 | 11.0 | 0.00 | 0.00 | 0.00 | 71 | 1013.2 |
| 20260831154516 | 86 | 203 | 7.0 | 13.0 | 0.00 | 0.00 | 0.00 | 70 | 1013.1 |
| 20260831153516 | 87 | 203 | 6.0 | 11.0 | 0.00 | 0.00 | 0.00 | 65 | 1013.1 |
| 20260831152536 | 87 | 203 | 5.0 | 9.0 | 0.00 | 0.00 | 0.00 | 66 | 1013.1 |
| 20260831151516 | 87 | 203 | 6.0 | 13.0 | 0.00 | 0.00 | 0.00 | 67 | 1013.2 |
| 20260831150516 | 87 | 203 | 8.0 | 13.0 | 0.00 | 0.00 | 0.00 | 65 | 1013.2 |
| 20260831145536 | 87 | 203 | 6.0 | 15.0 | 0.00 | 0.00 | 0.00 | 66 | 1013.3 |
| 20260831144516 | 88 | 203 | 6.0 | 11.0 | 0.00 | 0.00 | 0.00 | 65 | 1013.5 |
| 20260831143516 | 88 | 203 | 7.0 | 14.0 | 0.00 | 0.00 | 0.00 | 65 | 1013.3 |
| 20260831143016 | 88 | 203 | 7.0 | 14.0 | 0.00 | 0.00 | 0.00 | 65 | 1013.3 |
| 20260831142516 | 88 | 225 | 4.0 | 10.0 | 0.00 | 0.00 | 0.00 | 65 | 1013.3 |
| 20260831141516 | 88 | 203 | 5.0 | 12.0 | 0.00 | 0.00 | 0.00 | 65 | 1013.2 |
| 20260831140516 | 87 | 248 | 4.0 | 11.0 | 0.00 | 0.00 | 0.00 | 67 | 1013.2 |
| 20260831135516 | 87 | 203 | 6.0 | 14.0 | 0.00 | 0.00 | 0.00 | 67 | 1013.1 |
| 20260831134516 | 87 | 203 | 6.0 | 16.0 | 0.00 | 0.00 | 0.00 | 67 | 1013.4 |
| 20260831133556 | 87 | 203 | 5.0 | 12.0 | 0.00 | 0.00 | 0.00 | 68 | 1013.4 |
| 20260831132515 | 87 | 225 | 6.0 | 14.0 | 0.00 | 0.00 | 0.00 | 70 | 1013.4 |
| 20260831131536 | 87 | 225 | 7.0 | 12.0 | 0.00 | 0.00 | 0.00 | 70 | 1013.4 |
| 20260831130515 | 87 | 203 | 8.0 | 16.0 | 0.00 | 0.00 | 0.00 | 70 | 1013.2 |
| 20260831125516 | 88 | 225 | 6.0 | 17.0 | 0.00 | 0.00 | 0.00 | 69 | 1013.3 |
| 20260831124536 | 87 | 225 | 7.0 | 14.0 | 0.00 | 0.00 | 0.00 | 71 | 1013.4 |
| 20260831123516 | 88 | 270 | 6.0 | 10.0 | 0.00 | 0.00 | 0.00 | 70 | 1013.4 |
| 20260831122556 | 87 | 248 | 6.0 | 12.0 | 0.00 | 0.00 | 0.00 | 71 | 1013.5 |
| 20260831121516 | 88 | 203 | 5.0 | 15.0 | 0.00 | 0.00 | 0.00 | 72 | 1013.6 |
| 20260831120516 | 88 | 225 | 7.0 | 15.0 | 0.00 | 0.00 | 0.00 | 70 | 1013.4 |
| 20260831115515 | 88 | 203 | 7.0 | 16.0 | 0.00 | 0.00 | 0.00 | 71 | 1013.5 |
| 20260831114516 | 89 | 203 | 7.0 | 17.0 | 0.00 | 0.00 | 0.00 | 70 | 1013.5 |
| 20260831113516 | 89 | 225 | 5.0 | 11.0 | 0.00 | 0.00 | 0.00 | 68 | 1013.4 |
| 20260831112515 | 89 | 203 | 6.0 | 14.0 | 0.00 | 0.00 | 0.00 | 68 | 1013.4 |
| 20260831111538 | 89 | 225 | 5.0 | 13.0 | 0.00 | 0.00 | 0.00 | 68 | 1013.3 |
| 20260831110517 | 90 | 248 | 5.0 | 10.0 | 0.00 | 0.00 | 0.00 | 67 | 1013.3 |
| 20260831105518 | 89 | 203 | 6.0 | 12.0 | 0.00 | 0.00 | 0.00 | 67 | 1013.4 |
| 20260831104515 | 89 | 225 | 6.0 | 15.0 | 0.00 | 0.00 | 0.00 | 68 | 1013.3 |
| 20260831103517 | 89 | 248 | 5.0 | 11.0 | 0.00 | 0.00 | 0.00 | 69 | 1013.3 |
| 20260831102517 | 90 | 203 | 7.0 | 18.0 | 0.00 | 0.00 | 0.00 | 68 | 1013.4 |
| 20260831101517 | 90 | 203 | 6.0 | 12.0 | 0.00 | 0.00 | 0.00 | 68 | 1013.3 |
| 20260831100517 | 90 | 203 | 7.0 | 12.0 | 0.00 | 0.00 | 0.00 | 66 | 1013.2 |
| 20260831095517 | 91 | 203 | 6.0 | 13.0 | 0.00 | 0.00 | 0.00 | 63 | 1013.3 |
| 20260831094517 | 90 | 203 | 5.0 | 15.0 | 0.00 | 0.00 | 0.00 | 64 | 1013.1 |
| 20260831093517 | 90 | 225 | 5.0 | 10.0 | 0.00 | 0.00 | 0.00 | 62 | 1013.0 |
| 20260831092517 | 90 | 225 | 3.0 | 10.0 | 0.00 | 0.00 | 0.00 | 64 | 1013.0 |
| 20260831091517 | 90 | 225 | 2.0 | 6.0 | 0.00 | 0.00 | 0.00 | 66 | 1013.1 |
| 20260831090517 | 89 | 203 | 3.0 | 7.0 | 0.00 | 0.00 | 0.00 | 65 | 1013.0 |
| 20260831085517 | 89 | 113 | 2.0 | 6.0 | 0.00 | 0.00 | 0.00 | 67 | 1013.0 |
| 20260831084517 | 90 | 203 | 2.0 | 4.0 | 0.00 | 0.00 | 0.00 | 65 | 1013.0 |
| 20260831083517 | 89 | 203 | 2.0 | 6.0 | 0.00 | 0.00 | 0.00 | 66 | 1013.0 |